Location: ????????
(55.6189°N, 38.3031°E)
Time: 10:55:44
(UTC+00:00)

STARLINK-60 - Pass Details

Date: 15 November 2019
Orbit: 416 x 425 km, 53.0° (Epoch: 09 December)

Event Time Altitude Azimuth Distance (km) Brightness Sun altitude
Exits shadow 04:10:06 - 264° (W) 1,750 5.6 -7.2°
Reaches altitude 10° 04:10:44 10° 262° (W) 1,498 5.3 -7.1°
Maximum altitude 04:14:01 54° 184° (S) 516 3.6 -6.6°
Drops below altitude 10° 04:17:18 10° 106° (ESE) 1,499 7.6 -6.2°
Sets 04:19:25 0° 102° (ESE) 2,364 8.9 -5.9°
